Location: Malvern Link
(52.1333°N, 2.3000°W)
Time: 11:19:40
(UTC+00:00)

SPROUT - Pass Details

Date: 03 July 2022
Orbit: 588 x 598 km, 97.9° (Epoch: 18 August)

Event Time Altitude Azimuth Distance (km) Brightness Sun altitude
Exits shadow 23:10:48 - 106° (ESE) 2,451 ? -13.7°
Reaches altitude 10° 23:12:42 10° 89° (E) 1,922 ? -13.8°
Maximum altitude 23:14:58 15° 56° (NE) 1,647 ? -13.9°
Drops below altitude 10° 23:17:16 10° 22° (NNE) 1,932 ? -14.0°
Sets 23:20:16 0° 359° (N) 2,841 ? -14.1°
